Location: Golden Pond Observatory
(36.7773°N, 88.0631°W)
Time: 19:17:56
(UTC-06:00)

Hubble Space Telescope - Pass Details

Date: 19 November 2019
Orbit: 536 x 540 km, 28.5° (Epoch: 10 December)

Event Time Altitude Azimuth Distance (km) Brightness Sun altitude
Rises 18:24:06 0° 233° (SW) 2,666 5.4 -20.6°
Reaches altitude 10° 18:26:48 10° 216° (SW) 1,778 4.0 -21.2°
Maximum altitude 18:29:50 20° 168° (SSE) 1,270 2.6 -21.8°
Enters shadow 18:30:02 20° 164° (SSE) 1,273 2.6 -21.8°
